Location: Cary
(35.7910°N, 78.7810°W)
Time: 05:07:13
(UTC-05:00)

N. Korean satellite - Visible Passes

Search period start: 18 January 2018 00:00
Search period end: 28 January 2018 00:00
Orbit: 459 x 515 km, 97.2° (Epoch: 17 January)

Date Brightness Start Highest point End Pass type
(mag) Time Alt. Az. Time Alt. Az. Time Alt. Az.
18 Jan 9.8 06:05:21 10° ENE 06:07:26 15° E 06:09:30 10° SE visible
18 Jan 6.5 18:10:34 10° SSE 18:14:12 77° ENE 18:17:47 10° N visible
19 Jan 10.2 19:23:06 10° WSW 19:24:12 11° W 19:25:18 10° WNW visible
20 Jan 6.8 06:50:17 10° NNE 06:53:43 71° E 06:57:09 10° S visible
20 Jan 9.2 18:57:31 10° SSW 19:00:25 22° W 19:03:18 10° NW visible
21 Jan 8.7 06:26:55 10° NNE 06:30:01 30° E 06:33:07 10° SSE visible
21 Jan 7.7 18:33:12 10° S 18:36:42 47° W 18:40:09 10° NNW visible
22 Jan 9.8 06:04:12 10° ENE 06:06:15 15° E 06:08:17 10° SE visible
22 Jan 6.5 18:09:27 10° SSE 18:13:02 75° ENE 18:16:35 10° N visible
23 Jan 10.2 19:21:53 10° WSW 19:23:02 11° W 19:24:09 10° WNW visible
24 Jan 6.9 06:49:04 10° NNE 06:52:31 69° E 06:55:59 10° S visible
24 Jan 9.2 18:56:21 10° SSW 18:59:14 23° W 19:02:05 10° NW visible
25 Jan 8.7 06:25:44 10° NE 06:28:48 30° E 06:31:54 10° SSE visible
25 Jan 7.6 18:32:03 10° S 18:35:30 48° W 18:38:56 10° NNW visible
26 Jan 9.9 06:03:01 10° ENE 06:05:02 15° E 06:07:03 10° SE visible
26 Jan 6.4 18:08:17 10° SSE 18:11:50 73° ENE 18:15:20 10° N visible
27 Jan 10.2 19:20:38 10° WSW 19:21:48 11° W 19:22:58 10° WNW visible
